1534557600.67,12411,20.5,74450.0,4.79,-8.89,-10.09,0,*41
1534557601.88,12412,20.5,74450.0,4.81,-8.85,-10.23,0,*41
1534557603.11,12413,20.5,74450.3,4.81,-8.85,-10.63,0,*44
1534557604.36,12414,20.5,74452.8,4.79,-8.97,-10.79,0,*4C
1534557605.64,12415,20.5,74450.8,4.79,-9.11,-11.07,0,*4A
1534557606.86,12416,20.5,74452.3,4.81,-9.23,-11.29,0,*43
1534557608.1,12417,20.5,74452.0,4.81,-9.41,-11.51,0,*49
1534557609.37,12418,20.5,74450.5,4.79,-9.53,-11.63,0,*43
1534557610.62,12419,20.5,74454.8,4.79,-9.79,-11.77,0,*4F
1534557611.86,12420,20.5,74458.5,4.79,-9.97,-11.89,0,*44
1534557613.1,12421,20.5,74456.5,4.79,-10.09,-11.77,0,*7B
1534557614.35,12422,20.5,74458.8,4.79,-10.35,-11.77,0,*77
1534557615.6,12423,20.5,74460.0,4.81,-10.63,-11.77,0,*72
1534557616.85,12424,20.5,74460.5,4.81,-10.75,-11.77,0,*72
1534557618.07,12425,20.5,74460.5,4.81,-10.89,-11.51,0,*74
1534557619.3,12426,20.5,74460.0,4.79,-11.01,-11.41,0,*70
1534557620.52,12427,20.5,74458.3,4.81,-11.15,-11.33,0,*76
1534557621.8,12428,20.5,74462.0,4.79,-11.29,-11.07,0,*76
1534557623.08,12429,20.5,74456.3,4.79,-11.51,-11.07,0,*78
1534557624.31,12430,20.5,74456.0,4.81,-11.59,-11.01,0,*79
1534557625.54,12431,20.5,74456.3,4.81,-11.63,-10.93,0,*7B
1534557626.82,12432,20.5,74462.0,4.79,-11.63,-10.75,0,*77
1534557628.07,12433,20.5,74466.0,4.77,-11.81,-10.79,0,*78
1534557629.3,12434,20.5,74466.5,4.77,-11.77,-10.53,0,*7E
1534557630.52,12435,20.5,74464.8,4.81,-11.51,-10.23,0,*75
1534557631.75,12436,20.5,74468.8,4.79,-11.45,-10.09,0,*7C
1534557633.0,12437,20.5,74458.0,4.79,-11.51,-10.09,0,*78
1534557634.25,12438,20.5,74460.3,4.79,-11.51,-10.05,0,*7B
1534557635.49,12439,20.5,74456.5,4.79,-11.45,-10.19,0,*72
1534557636.75,12440,20.5,74458.0,4.79,-11.51,-10.19,0,*79
1534557638.01,12441,20.5,74462.0,4.79,-11.51,-10.19,0,*78
1534557639.22,12442,20.5,74460.3,4.81,-11.45,-10.19,0,*79
1534557640.47,12443,20.5,74462.3,4.79,-11.51,-10.23,0,*73
1534557641.72,12444,20.5,74460.8,4.79,-11.51,-10.23,0,*74
1534557642.95,12445,20.5,74462.3,4.81,-11.51,-10.31,0,*71
1534557644.18,12446,20.5,74460.5,4.79,-11.41,-10.23,0,*77
1534557645.41,12447,20.5,74462.3,4.79,-11.41,-10.23,0,*76
1534557646.64,12448,20.5,74462.0,4.79,-11.41,-10.23,0,*79
1534557647.87,12449,20.5,74464.5,4.79,-11.41,-10.23,0,*78
1534557649.12,12450,20.5,74464.0,4.79,-11.33,-10.23,0,*75
1534557650.38,12451,20.5,74464.5,4.79,-11.29,-10.19,0,*76
1534557651.59,12452,20.5,74466.3,4.77,-11.19,-10.01,0,*71
1534557652.79,12453,20.5,74462.3,4.77,-11.11,-10.01,0,*78
1534557654.02,12454,20.5,74462.3,4.77,-11.07,-9.97,0,*4F
1534557655.24,12455,20.5,74464.8,4.77,-11.07,-9.89,0,*41
1534557656.47,12456,20.5,74466.5,4.77,-11.07,-9.71,0,*45
1534557657.69,12457,20.5,74462.8,4.77,-10.97,-9.57,0,*48
1534557658.94,12458,20.5,74460.8,4.75,-10.97,-9.57,0,*45
1534557660.17,12459,20.5,74462.8,4.77,-10.93,-9.45,0,*41
1534557661.41,12460,20.5,74460.8,4.79,-10.79,-9.27,0,*45
1534557662.66,12461,20.5,74460.3,4.75,-10.89,-9.37,0,*46
1534557663.88,12462,20.5,74462.0,4.77,-10.71,-9.19,0,*4C
1534557665.1,12463,20.5,74460.0,4.77,-10.71,-9.05,0,*40
1534557666.35,12464,20.5,74460.8,4.75,-10.67,-8.93,0,*4C
1534557667.58,12465,20.5,74464.0,4.77,-10.67,-8.89,0,*44
1534557668.81,12466,20.5,74466.8,4.77,-10.63,-8.85,0,*4F
1534557670.06,12467,20.5,74466.3,4.75,-10.67,-8.75,0,*47
1534557671.24,12468,20.5,74466.5,4.77,-10.49,-8.59,0,*48
1534557672.44,12469,20.5,74468.0,4.77,-10.49,-8.45,0,*44
1534557673.66,12470,20.5,74470.8,4.75,-10.31,-8.37,0,*44
1534557674.88,12471,20.5,74468.3,4.75,-10.19,-8.25,0,*4C
1534557676.13,12472,20.5,74466.3,4.75,-10.15,-7.95,0,*47
1534557677.36,12473,20.5,74466.5,4.75,-10.01,-7.95,0,*43
1534557678.61,12474,20.5,74464.3,4.75,-9.71,-7.73,0,*73
1534557679.83,12475,20.5,74464.5,4.77,-9.71,-7.65,0,*77
1534557681.08,12476,20.5,74468.3,4.75,-9.71,-7.57,0,*77
1534557682.31,12477,20.5,74464.0,4.77,-9.57,-7.43,0,*75
1534557683.55,12478,20.5,74466.5,4.77,-9.57,-7.43,0,*7A
1534557684.82,12479,20.5,74470.5,4.75,-9.49,-7.35,0,*77
1534557686.01,12480,20.5,74468.3,4.77,-9.31,-7.15,0,*7E
1534557687.23,12481,20.5,74464.8,4.77,-9.19,-7.01,0,*70
1534557688.42,12482,20.5,74470.0,4.77,-9.05,-6.89,0,*7F
1534557689.65,12483,20.5,74464.8,4.77,-9.15,-6.77,0,*7E
1534557690.89,12484,20.5,74464.5,4.75,-9.11,-6.69,0,*70
1534557692.16,12485,20.5,74460.8,4.75,-9.11,-6.63,0,*7B
1534557693.36,12486,20.5,74464.0,4.77,-9.05,-6.51,0,*7E
1534557694.56,12487,20.5,74464.3,4.77,-8.93,-6.31,0,*77
1534557695.79,12488,20.5,74464.8,4.77,-9.01,-6.19,0,*78
1534557696.98,12489,20.5,74464.0,4.77,-8.93,-6.05,0,*7E
1534557698.2,12490,20.5,74462.8,4.77,-8.75,-5.81,0,*71
1534557699.44,12491,20.5,74464.5,4.77,-8.81,-5.69,0,*7D
1534557700.66,12492,20.5,74462.8,4.79,-8.67,-5.51,0,*73
1534557701.88,12493,20.5,74464.3,4.79,-8.55,-5.35,0,*71
1534557703.12,12494,20.5,74460.0,4.79,-8.41,-5.15,0,*71
1534557704.34,12495,20.5,74462.0,4.81,-8.21,-5.03,0,*76
1534557705.58,12496,20.5,74460.3,4.81,-7.95,-4.77,0,*77
1534557706.82,12497,20.5,74462.3,4.81,-7.95,-4.85,0,*7B
1534557708.05,12498,20.5,74456.5,4.81,-7.77,-4.77,0,*75
1534557709.32,12499,20.5,74454.0,4.79,-7.65,-4.77,0,*70
1534557710.53,12500,20.5,74454.5,4.81,-7.39,-4.65,0,*7C
1534557711.74,12501,20.5,74460.5,4.81,-7.27,-4.65,0,*72
1534557712.96,12502,20.5,74464.5,4.81,-7.27,-4.65,0,*71
1534557714.17,12503,20.5,74462.5,4.85,-7.01,-4.53,0,*75
1534557715.41,12504,20.5,74462.5,4.85,-7.01,-4.69,0,*7B
1534557716.61,12505,20.5,74460.0,4.85,-6.89,-4.61,0,*73
1534557717.82,12506,20.5,74464.0,4.85,-6.81,-4.69,0,*70
1534557719.04,12507,20.5,74462.3,4.85,-6.81,-4.73,0,*7A
1534557720.26,12508,20.5,74464.3,4.85,-6.77,-4.73,0,*7C
1534557721.45,12509,20.5,74468.8,4.85,-6.55,-4.61,0,*7E
1534557722.64,12510,20.5,74462.3,4.85,-6.39,-4.53,0,*7D
1534557723.85,12511,20.5,74464.0,4.85,-6.27,-4.53,0,*73
1534557725.06,12512,20.5,74464.8,4.85,-6.23,-4.45,0,*73
1534557726.27,12513,20.5,74460.0,4.87,-6.13,-4.33,0,*72
1534557727.46,12514,20.5,74462.3,4.85,-5.97,-4.33,0,*78
1534557728.71,12515,20.5,74462.8,4.87,-5.85,-4.21,0,*7B
1534557729.92,12516,20.5,74462.8,4.85,-5.65,-4.09,0,*7E
1534557731.11,12517,20.5,74464.8,4.85,-5.51,-4.09,0,*78
1534557732.33,12518,20.5,74460.5,4.87,-5.39,-4.05,0,*77
1534557733.54,12519,20.5,74464.3,4.85,-5.19,-3.91,0,*7C
1534557734.76,12520,20.5,74462.5,4.85,-5.07,-4.09,0,*7F
1534557736.0,12521,20.5,74466.0,4.87,-5.07,-4.21,0,*76
1534557737.21,12522,20.5,74460.0,4.85,-4.85,-4.29,0,*74
1534557738.45,12523,20.5,74466.8,4.87,-4.81,-4.41,0,*7D
1534557739.64,12524,20.5,74466.3,4.85,-4.57,-4.33,0,*76
1534557740.84,12525,20.5,74460.8,4.87,-4.45,-4.45,0,*77
1534557742.07,12526,20.5,74464.8,4.87,-4.45,-4.69,0,*7A
1534557743.32,12527,20.5,74466.8,4.87,-4.33,-4.73,0,*71
1534557744.53,12528,20.5,74466.5,4.87,-4.29,-4.99,0,*71
1534557745.78,12529,20.5,74466.3,4.87,-4.29,-5.19,0,*79
1534557746.99,12530,20.5,74462.5,4.89,-4.13,-5.31,0,*7C
1534557748.21,12531,20.5,74464.8,4.87,-4.21,-5.47,0,*73
1534557749.46,12532,20.5,74464.5,4.87,-4.21,-5.65,0,*70
1534557750.7,12533,20.5,74464.5,4.87,-4.41,-5.85,0,*79
1534557751.91,12534,20.5,74464.0,4.87,-4.41,-6.01,0,*71
1534557753.12,12535,20.5,74466.5,4.91,-4.49,-6.05,0,*7B
1534557754.32,12536,20.5,74462.5,4.89,-4.57,-6.23,0,*7A
1534557755.55,12537,20.5,74462.5,4.89,-4.69,-6.27,0,*72
1534557756.78,12538,20.5,74466.8,4.91,-4.77,-6.31,0,*7C
1534557758.03,12539,20.5,74460.5,4.93,-4.89,-6.31,0,*7E
1534557759.24,12540,20.5,74458.0,4.89,-5.15,-6.39,0,*77
1534557760.48,12541,20.5,74456.5,4.91,-5.15,-6.43,0,*72
1534557761.72,12542,20.5,74462.8,4.91,-5.31,-6.47,0,*73
1534557762.93,12543,20.5,74462.0,4.91,-5.39,-6.43,0,*7E
1534557764.15,12544,20.5,74462.0,4.91,-5.51,-6.59,0,*7C
1534557765.38,12545,20.5,74466.0,4.91,-5.65,-6.59,0,*7A
1534557766.62,12546,20.44,74460.0,4.91,-5.65,-6.59,0,*79
1534557767.84,12547,20.5,74466.3,4.91,-5.55,-6.35,0,*71
1534557769.06,12548,20.5,74462.5,4.91,-5.55,-6.35,0,*7E
1534557770.3,12549,20.5,74460.5,4.91,-5.69,-6.43,0,*71
1534557771.55,12550,20.44,74458.0,4.93,-5.55,-6.23,0,*72
1534557772.78,12551,20.5,74462.0,4.93,-5.55,-6.31,0,*70
1534557773.99,12552,20.5,74458.5,4.95,-5.73,-6.39,0,*79
1534557775.23,12553,20.44,74458.0,4.93,-5.77,-6.43,0,*77
1534557776.48,12554,20.5,74456.0,4.93,-5.81,-6.35,0,*78
1534557777.73,12555,20.5,74464.0,4.93,-5.89,-6.47,0,*74
1534557778.95,12556,20.5,74462.5,4.95,-5.89,-6.55,0,*72
1534557780.17,12557,20.5,74460.0,4.93,-6.01,-6.69,0,*79
1534557781.37,12558,20.5,74466.3,4.95,-6.01,-6.81,0,*76
1534557782.59,12559,20.5,74464.5,4.93,-6.05,-6.81,0,*75
1534557783.81,12560,20.5,74462.8,4.93,-6.13,-6.85,0,*7C
1534557785.08,12561,20.5,74466.0,4.93,-6.19,-6.93,0,*70
1534557786.31,12562,20.5,74464.8,4.93,-6.31,-6.81,0,*7A
1534557787.51,12563,20.5,74468.0,4.95,-6.31,-6.81,0,*7D
1534557788.73,12564,20.44,74462.5,4.93,-6.47,-6.81,0,*7D
1534557789.95,12565,20.5,74466.3,4.93,-6.73,-6.73,0,*76
1534557791.17,12566,20.5,74460.8,4.93,-6.85,-6.73,0,*7C
1534557792.41,12567,20.5,74464.8,4.93,-7.01,-6.59,0,*78
1534557793.63,12568,20.5,74462.5,4.93,-7.23,-6.47,0,*78
1534557794.88,12569,20.5,74466.8,4.93,-7.39,-6.35,0,*77
1534557796.12,12570,20.5,74464.0,4.93,-7.61,-6.13,0,*76
1534557797.39,12571,20.5,74466.8,4.93,-7.65,-5.89,0,*73
1534557798.61,12572,20.5,74466.3,4.95,-7.77,-5.47,0,*77
1534557799.88,12573,20.5,74466.0,4.93,-7.91,-5.23,0,*7A
1534557801.15,12574,20.5,74466.8,4.93,-8.03,-4.85,0,*74
1534557802.39,12575,20.5,74466.0,4.93,-8.03,-4.33,0,*78
1534557803.6,12576,20.5,74468.8,4.95,-7.91,-3.83,0,*75
1534557804.82,12577,20.5,74468.5,4.95,-7.87,-3.59,0,*74
1534557806.01,12578,20.5,74470.3,4.95,-7.87,-3.19,0,*7F
1534557807.25,12579,20.5,74470.5,4.93,-7.61,-2.87,0,*76
1534557808.5,12580,20.5,74468.3,4.93,-7.53,-2.47,0,*7D
1534557809.75,12581,20.5,74468.0,4.93,-7.35,-2.31,0,*7D
1534557810.99,12582,20.5,74468.3,4.95,-7.05,-1.87,0,*75
1534557812.19,12583,20.5,74468.8,4.95,-6.89,-1.63,0,*7B
1534557813.38,12584,20.44,74464.8,4.95,-6.69,-1.51,0,*73
1534557814.63,12585,20.5,74468.5,4.93,-6.35,-1.35,0,*7F
1534557815.84,12586,20.5,74470.8,4.95,-6.01,-1.13,0,*79
1534557817.11,12587,20.5,74468.5,4.93,-5.81,-1.05,0,*72
1534557818.33,12588,20.5,74468.5,4.95,-5.27,-0.77,0,*43
1534557819.54,12589,20.5,74468.3,4.95,-5.11,-0.81,0,*4E
1534557820.75,12590,20.5,74468.3,4.95,-4.81,-0.77,0,*47
1534557821.96,12591,20.5,74468.5,4.93,-4.49,-0.81,0,*4D
1534557823.16,12592,20.5,74468.8,4.95,-4.21,-0.77,0,*4F
1534557824.38,12593,20.5,74468.3,4.93,-3.95,-0.81,0,*49
1534557825.62,12594,20.5,74472.0,4.93,-3.71,-0.81,0,*44
1534557826.86,12595,20.5,74470.8,4.93,-3.47,-0.81,0,*40
1534557828.1,12596,20.5,74470.0,4.93,-3.35,-0.85,0,*42
1534557829.34,12597,20.5,74468.5,4.93,-3.07,-0.97,0,*41
1534557830.54,12598,20.5,74470.0,4.95,-2.91,-0.93,0,*42
1534557831.77,12599,20.5,74468.8,4.95,-2.75,-0.93,0,*49
1534557833.02,12600,20.5,74470.3,4.95,-2.55,-1.05,0,*76
1534557834.21,12601,20.44,74466.8,4.95,-2.43,-1.21,0,*76
1534557835.43,12602,20.44,74466.8,4.95,-2.31,-1.09,0,*7A
1534557836.62,12603,20.5,74470.0,4.95,-2.19,-1.29,0,*73
1534557837.81,12604,20.5,74470.8,4.95,-2.19,-1.33,0,*7F
1534557839.0,12605,20.5,74468.3,4.95,-2.15,-1.33,0,*72
1534557840.21,12606,20.5,74468.5,4.95,-2.07,-1.33,0,*72
1534557841.43,12607,20.5,74468.0,4.95,-2.03,-1.33,0,*77
1534557842.67,12608,20.5,74468.0,4.95,-1.87,-1.13,0,*75
1534557843.86,12609,20.5,74470.8,4.95,-1.75,-1.21,0,*78
1534557845.08,12610,20.5,74468.5,4.97,-1.67,-1.21,0,*71
1534557846.29,12611,20.5,74468.0,4.97,-1.67,-1.21,0,*70
1534557847.53,12612,20.44,74464.0,4.97,-1.67,-1.39,0,*7A
1534557848.77,12613,20.5,74470.0,4.97,-1.67,-1.43,0,*76
1534557850.0,12614,20.5,74470.5,4.97,-1.63,-1.43,0,*75
1534557851.25,12615,20.5,74470.0,4.99,-1.47,-1.39,0,*71
1534557852.46,12616,20.5,74464.3,4.97,-1.55,-1.55,0,*75
1534557853.68,12617,20.5,74464.5,4.99,-1.47,-1.51,0,*7D
1534557854.89,12618,20.5,74466.8,4.97,-1.51,-1.63,0,*7A
1534557856.1,12619,20.5,74466.8,4.97,-1.67,-1.79,0,*75
1534557857.34,12620,20.5,74466.0,4.97,-1.67,-1.91,0,*79
1534557858.56,12621,20.44,74462.8,4.99,-1.75,-2.03,0,*7D
1534557859.77,12622,20.5,74466.3,4.99,-1.75,-2.03,0,*7E
1534557860.99,12623,20.5,74466.0,4.99,-1.87,-2.15,0,*75
1534557862.2,12624,20.5,74466.8,4.97,-2.15,-2.27,0,*75
1534557863.4,12625,20.5,74466.8,4.99,-2.15,-2.31,0,*7D
1534557864.6,12626,20.5,74466.3,4.97,-2.43,-2.43,0,*76
1534557865.85,12627,20.5,74466.0,4.99,-2.71,-2.47,0,*7C
1534557867.07,12628,20.5,74464.8,4.99,-2.79,-2.59,0,*74
1534557868.29,12629,20.5,74464.5,4.99,-3.03,-2.63,0,*70
1534557869.51,12630,20.44,74464.8,4.99,-3.15,-2.71,0,*7C
1534557870.76,12631,20.5,74466.8,4.99,-3.51,-2.75,0,*79
1534557872.01,12632,20.5,74466.8,4.99,-3.51,-2.59,0,*74
1534557873.26,12633,20.5,74470.0,4.99,-3.63,-2.47,0,*7B
1534557874.47,12634,20.5,74464.3,4.99,-3.63,-2.27,0,*7A
1534557875.68,12635,20.5,74464.3,4.99,-3.75,-2.23,0,*78
1534557876.91,12636,20.5,74464.0,4.99,-3.79,-2.03,0,*75
1534557878.15,12637,20.5,74466.3,4.99,-4.01,-1.95,0,*70
1534557879.36,12638,20.5,74464.8,4.99,-3.91,-1.71,0,*7B
1534557880.57,12639,20.5,74462.8,5.01,-3.87,-1.55,0,*7B
1534557881.81,12640,20.5,74464.0,5.01,-3.87,-1.43,0,*72
1534557883.04,12641,20.5,74464.0,4.99,-3.91,-1.35,0,*75
1534557884.26,12642,20.44,74456.3,5.03,-3.87,-1.05,0,*70
1534557885.53,12643,20.5,74460.8,5.01,-4.01,-1.05,0,*7A
1534557886.79,12644,20.44,74458.0,5.01,-4.01,-0.85,0,*44
1534557887.98,12645,20.44,74456.5,5.03,-4.09,-0.73,0,*46
1534557889.16,12646,20.5,74458.8,5.03,-4.09,-0.61,0,*46
1534557890.41,12647,20.5,74458.8,5.01,-4.01,-0.33,0,*4A
1534557891.62,12648,20.5,74456.3,5.03,-4.01,-0.29,0,*4C
1534557892.81,12649,20.5,74456.3,5.03,-4.09,-0.19,0,*46
1534557894.02,12650,20.5,74456.3,5.01,-3.83,0.05,0,*59
1534557895.26,12651,20.5,74456.8,5.01,-3.75,0.25,0,*63
1534557896.48,12652,20.5,74452.0,5.03,-3.71,0.37,0,*65
1534557897.74,12653,20.5,74454.3,5.01,-3.59,0.47,0,*6B
1534557898.97,12654,20.5,74452.0,5.03,-3.51,0.67,0,*64
1534557900.18,12655,20.44,74452.8,5.03,-3.35,0.87,0,*69
1534557901.36,12656,20.5,74454.5,5.03,-3.19,0.97,0,*65
1534557902.57,12657,20.5,74458.3,5.03,-2.95,1.21,0,*5D
1534557903.78,12658,20.44,74452.8,5.07,-2.79,1.33,0,*57
1534557905.04,12659,20.5,74452.0,5.01,-2.71,1.37,0,*5C
1534557906.27,12660,20.5,74458.0,5.03,-2.47,1.47,0,*56
1534557907.47,12661,20.5,74460.5,5.03,-2.23,1.47,0,*55
1534557908.7,12662,20.5,74458.8,5.03,-2.11,1.47,0,*57
1534557909.93,12663,20.44,74460.8,5.03,-1.91,1.51,0,*5A
1534557911.13,12664,20.5,74462.8,5.03,-1.59,1.51,0,*59
1534557912.34,12665,20.5,74464.0,5.03,-1.33,1.63,0,*55
1534557913.54,12666,20.5,74460.8,5.03,-1.25,1.59,0,*58
1534557914.78,12667,20.5,74462.0,5.07,-1.05,1.63,0,*56
1534557916.0,12668,20.44,74460.5,5.07,-0.93,1.63,0,*67
1534557917.2,12669,20.5,74468.3,5.03,-0.73,1.47,0,*6A
1534557918.4,12670,20.5,74470.5,5.03,-0.57,1.47,0,*64
1534557919.59,12671,20.5,74468.0,5.03,-0.33,1.59,0,*68
1534557920.79,12672,20.5,74466.0,5.07,-0.15,1.63,0,*62
1534557921.98,12673,20.5,74466.3,5.07,0.09,1.63,0,*73
1534557923.17,12674,20.5,74466.3,5.07,0.09,1.63,0,*74
1534557924.39,12675,20.5,74468.0,5.07,0.21,1.55,0,*4A
1534557925.63,12676,20.44,74464.0,5.09,0.33,1.55,0,*44
1534557926.81,12677,20.5,74468.3,5.07,0.43,1.51,0,*48
1534557928.03,12678,20.5,74466.8,5.09,0.43,1.33,0,*4D
1534557929.27,12679,20.5,74466.8,5.09,0.51,1.29,0,*44
1534557930.51,12680,20.5,74466.0,5.09,0.55,1.17,0,*4B
1534557931.74,12681,20.5,74468.3,5.09,0.55,1.05,0,*49
1534557932.95,12682,20.5,74464.5,5.09,0.59,1.05,0,*46
1534557934.13,12683,20.44,74466.3,5.11,0.63,0.97,0,*7D
1534557935.34,12684,20.44,74462.8,5.11,0.71,0.95,0,*7B
1534557936.55,12685,20.5,74466.5,5.11,0.63,0.87,0,*7A
1534557937.76,12686,20.5,74462.3,5.11,0.63,0.75,0,*74
1534557939.0,12687,20.5,74460.0,5.13,0.67,0.75,0,*73
1534557940.22,12688,20.44,74462.5,5.13,0.67,0.63,0,*7B
1534557941.45,12689,20.5,74466.5,5.13,0.67,0.63,0,*7A
1534557942.67,12690,20.5,74464.8,5.11,0.59,0.47,0,*7B
1534557943.9,12691,20.5,74464.3,5.13,0.59,0.47,0,*78
1534557945.14,12692,20.5,74464.3,5.13,0.47,0.37,0,*73
1534557946.37,12693,20.5,74460.0,5.13,0.37,0.25,0,*76
1534557947.59,12694,20.44,74462.8,5.11,0.21,0.21,0,*70
1534557948.82,12695,20.5,74466.5,5.13,0.17,0.25,0,*72
1534557950.05,12696,20.5,74466.5,5.13,0.13,0.25,0,*75
1534557951.26,12697,20.5,74460.0,5.13,-0.07,0.17,0,*6D
1534557952.47,12698,20.44,74458.8,5.13,-0.07,0.25,0,*63
1534557953.67,12699,20.5,74460.5,5.15,-0.19,0.37,0,*58
1534557954.89,12700,20.5,74466.3,5.15,-0.23,0.41,0,*51
1534557956.11,12701,20.44,74462.5,5.15,-0.23,0.51,0,*51
1534557957.31,12702,20.5,74464.0,5.15,-0.33,0.51,0,*53
1534557958.5,12703,20.44,74464.3,5.15,-0.37,0.67,0,*53
1534557959.7,12704,20.5,74468.5,5.15,-0.37,0.79,0,*5B
1534557960.9,12705,20.44,74466.3,5.15,-0.37,0.87,0,*5B
1534557962.1,12706,20.44,74464.0,5.17,-0.41,1.01,0,*64
1534557963.3,12707,20.5,74468.0,5.15,-0.37,1.13,0,*65
1534557964.53,12708,20.5,74464.8,5.17,-0.41,1.17,0,*6D
1534557965.76,12709,20.5,74464.0,5.17,-0.41,1.29,0,*61
1534557966.95,12710,20.5,74468.3,5.17,-0.33,1.41,0,*62
1534557968.15,12711,20.5,74466.0,5.15,-0.37,1.37,0,*64
1534557969.37,12712,20.5,74466.5,5.15,-0.27,1.47,0,*61
1534557970.57,12713,20.5,74464.0,5.15,-0.19,1.59,0,*62
1534557971.79,12714,20.5,74466.0,5.17,-0.15,1.63,0,*62
1534557973.02,12715,20.5,74464.0,5.17,-0.15,1.63,0,*63
1534557974.24,12716,20.5,74464.0,5.17,-0.15,1.63,0,*60
1534557975.44,12717,20.44,74460.8,5.15,-0.11,1.59,0,*6E
1534557976.63,12718,20.5,74466.5,5.15,-0.07,1.51,0,*5E
1534557977.84,12719,20.5,74466.3,5.17,0.09,1.51,0,*7E
1534557979.03,12720,20.44,74460.3,5.17,0.09,1.41,0,*75
1534557980.26,12721,20.5,74466.5,5.17,0.17,1.43,0,*49
1534557981.5,12722,20.5,74466.3,5.17,0.21,1.37,0,*4C
1534557982.75,12723,20.5,74464.3,5.17,0.21,1.25,0,*4E
1534557983.96,12724,20.44,74464.0,5.17,0.09,1.13,0,*76
1534557985.15,12725,20.5,74464.3,5.15,0.05,1.13,0,*79
1534557986.31,12726,20.5,74466.0,5.15,0.05,0.97,0,*47
1534557987.54,12727,20.5,74464.5,5.17,-0.03,0.91,0,*69
1534557988.73,12728,20.44,74466.3,5.15,-0.07,0.83,0,*63
1534557989.95,12729,20.44,74464.8,5.17,-0.15,0.71,0,*5E
1534557991.17,12730,20.5,74470.0,5.17,-0.29,0.63,0,*5A
1534557992.39,12731,20.44,74466.3,5.17,-0.33,0.63,0,*50
1534557993.61,12732,20.5,74468.5,5.17,-0.41,0.55,0,*53
1534557994.81,12733,20.5,74466.0,5.19,-0.53,0.51,0,*5B
1534557996.01,12734,20.44,74464.3,5.19,-0.65,0.63,0,*58
1534557997.21,12735,20.5,74470.8,5.19,-0.69,0.63,0,*55
1534557998.41,12736,20.5,74468.3,5.19,-0.69,0.83,0,*58
1534557999.63,12737,20.5,74468.0,5.21,-0.65,0.95,0,*59
1534558000.83,12738,20.5,74468.0,5.17,-0.69,1.05,0,*67
1534558002.03,12739,20.5,74468.5,5.19,-0.65,1.17,0,*67
1534558003.22,12740,20.5,74470.3,5.21,-0.53,1.41,0,*64
1534558004.42,12741,20.44,74464.5,5.19,-0.41,1.55,0,*68
1534558005.62,12742,20.5,74466.0,5.19,-0.45,1.63,0,*6A
1534558006.82,12743,20.5,74468.0,5.21,-0.37,1.79,0,*6E
1534558008.02,12744,20.5,74464.5,5.19,-0.33,1.85,0,*65
1534558009.22,12745,20.44,74462.8,5.19,-0.15,2.01,0,*6F
1534558010.42,12746,20.44,74462.5,5.19,-0.07,2.09,0,*57
1534558011.62,12747,20.44,74462.0,5.19,-0.03,2.25,0,*5C
1534558012.86,12748,20.5,74464.8,5.21,0.13,2.13,0,*41
1534558014.05,12749,20.5,74466.5,5.19,0.21,2.27,0,*4D
1534558015.26,12750,20.44,74462.0,5.21,0.33,2.27,0,*4D
1534558016.42,12751,20.44,74462.8,5.19,0.43,2.27,0,*40
1534558017.64,12752,20.44,74462.3,5.21,0.55,2.27,0,*4F
1534558018.85,12753,20.44,74460.0,5.21,0.71,2.27,0,*48
1534558020.09,12754,20.5,74466.0,5.21,0.71,2.05,0,*4F
1534558021.33,12755,20.44,74464.5,5.21,0.83,2.13,0,*44
1534558022.58,12756,20.5,74466.3,5.21,0.95,2.05,0,*47
1534558023.78,12757,20.44,74464.3,5.19,1.05,2.01,0,*71
1534558025.01,12758,20.5,74466.3,5.19,1.13,1.89,0,*7A
1534558026.22,12759,20.5,74470.0,5.19,1.13,1.79,0,*74
1534558027.43,12760,20.44,74466.3,5.19,1.29,1.79,0,*77
1534558028.66,12761,20.5,74466.8,5.19,1.29,1.67,0,*79
1534558029.87,12762,20.44,74466.8,5.19,1.41,1.55,0,*75
1534558031.1,12763,20.5,74468.5,5.21,1.43,1.47,0,*7E
1534558032.34,12764,20.44,74470.5,5.21,1.43,1.43,0,*7D
1534558033.59,12765,20.44,74470.0,5.21,1.47,1.33,0,*7F
1534558034.77,12766,20.44,74470.8,5.19,1.41,1.05,0,*74
1534558035.99,12767,20.44,74468.8,5.21,1.33,1.05,0,*7B
1534558037.24,12768,20.5,74472.0,5.21,1.29,0.95,0,*47
1534558038.49,12769,20.44,74472.0,5.21,1.21,0.83,0,*49
1534558039.74,12770,20.5,74472.3,5.21,1.17,0.71,0,*49
1534558040.96,12771,20.44,74474.0,5.21,1.05,0.71,0,*4B
1534558042.16,12772,20.5,74474.0,5.19,1.01,0.63,0,*44
1534558043.38,12773,20.44,74470.3,5.21,1.05,0.67,0,*4E
1534558044.62,12774,20.5,74472.0,5.21,0.87,0.59,0,*7F
1534558045.81,12775,20.44,74468.0,5.23,0.75,0.43,0,*7A
1534558047.02,12776,20.44,74470.0,5.23,0.55,0.25,0,*7B
1534558048.23,12777,20.5,74468.8,5.23,0.51,0.29,0,*72
1534558049.42,12778,20.44,74470.5,5.23,0.43,0.21,0,*76
1534558050.6,12779,20.5,74468.3,5.23,0.33,0.09,0,*4A
1534558051.78,12780,20.5,74466.0,5.23,0.33,0.01,0,*44
1534558052.98,12781,20.5,74470.8,5.23,0.25,-0.11,0,*5E
1534558054.15,12782,20.44,74466.5,5.23,0.09,-0.11,0,*63
1534558055.35,12783,20.5,74470.8,5.23,-0.03,-0.27,0,*40
1534558056.54,12784,20.44,74468.5,5.25,0.05,-0.23,0,*6E
1534558057.72,12785,20.44,74466.5,5.23,-0.11,-0.29,0,*7B
1534558058.92,12786,20.5,74468.3,5.25,-0.15,-0.27,0,*74
1534558060.12,12787,20.44,74470.5,5.25,-0.15,-0.23,0,*71
1534558061.32,12788,20.44,74466.8,5.23,-0.27,-0.29,0,*73
1534558062.52,12789,20.44,74464.8,5.25,-0.33,-0.27,0,*7F
1534558063.7,12790,20.44,74470.5,5.25,-0.33,-0.37,0,*76
1534558064.88,12791,20.44,74470.3,5.25,-0.33,-0.37,0,*77
1534558066.07,12792,20.44,74468.0,5.25,-0.37,-0.49,0,*79
1534558067.25,12793,20.44,74470.0,5.25,-0.45,-0.57,0,*72
1534558068.43,12794,20.44,74470.5,5.25,-0.57,-0.69,0,*7B
1534558069.61,12795,20.44,74466.0,5.25,-0.73,-0.69,0,*7C
1534558070.82,12796,20.44,74470.0,5.29,-0.85,-0.77,0,*75
1534558072.04,12797,20.44,74468.8,5.29,-0.97,-0.85,0,*7A
1534558073.25,12798,20.5,74470.3,5.29,-1.21,-0.97,0,*4A
1534558074.49,12799,20.5,74468.0,5.25,-1.43,-1.01,0,*7D
1534558075.69,12800,20.5,74472.0,5.29,-1.63,-0.97,0,*42
1534558076.9,12801,20.44,74468.3,5.29,-1.79,-1.05,0,*72
1534558078.14,12802,20.5,74470.3,5.29,-2.03,-1.05,0,*7F
1534558079.33,12803,20.5,74468.0,5.29,-2.27,-0.93,0,*46
1534558080.52,12804,20.5,74470.5,5.29,-2.39,-0.77,0,*44
1534558081.74,12805,20.5,74470.0,5.31,-2.55,-0.65,0,*45
1534558082.98,12806,20.44,74464.5,5.31,-2.59,-0.41,0,*4C
1534558084.19,12807,20.44,74466.8,5.29,-2.71,-0.29,0,*40
1534558085.37,12808,20.44,74466.8,5.29,-2.79,-0.19,0,*44
1534558086.55,12809,20.44,74466.5,5.29,-2.79,0.09,0,*59
1534558087.77,12810,20.5,74468.0,5.31,-2.79,0.29,0,*6A
1534558088.95,12811,20.5,74466.3,5.29,-2.79,0.43,0,*6E
1534558090.2,12812,20.44,74462.5,5.31,-2.67,0.55,0,*6C
1534558091.43,12813,20.44,74460.5,5.29,-2.67,0.75,0,*66
1534558092.68,12814,20.44,74462.0,5.31,-2.55,0.91,0,*63
1534558093.86,12815,20.44,74464.0,5.29,-2.31,1.05,0,*55
1534558095.07,12816,20.44,74462.5,5.31,-2.19,1.05,0,*55
1534558096.32,12817,20.5,74466.8,5.31,-1.95,1.17,0,*50
1534558097.58,12818,20.5,74464.0,5.31,-1.83,1.13,0,*5C
1534558098.81,12819,20.44,74462.5,5.31,-1.71,1.13,0,*50
1534558099.98,12820,20.5,74460.0,5.29,-1.51,1.01,0,*52
1534558101.18,12821,20.44,74464.5,5.31,-1.51,1.01,0,*5A
1534558102.41,12822,20.5,74466.3,5.31,-1.51,0.91,0,*61
1534558103.67,12823,20.5,74464.3,5.31,-1.39,0.75,0,*64
1534558104.9,12824,20.44,74458.0,5.33,-1.35,0.59,0,*63
1534558106.15,12825,20.5,74466.3,5.35,-1.47,0.37,0,*69
1534558107.35,12826,20.44,74460.3,5.33,-1.51,0.37,0,*6B
1534558108.54,12827,20.44,74462.5,5.33,-1.63,0.33,0,*6F
1534558109.78,12828,20.44,74462.5,5.31,-1.71,0.21,0,*62
1534558110.98,12829,20.5,74464.3,5.33,-1.75,0.13,0,*64
1534558112.17,12830,20.44,74460.3,5.33,-1.79,0.25,0,*65
1534558113.37,12831,20.44,74462.5,5.33,-1.79,0.37,0,*67
1534558114.57,12832,20.5,74462.3,5.33,-1.79,0.47,0,*63
1534558115.77,12833,20.5,74464.3,5.33,-1.75,0.59,0,*61
1534558116.97,12834,20.44,74456.5,5.33,-1.67,0.79,0,*67
1534558118.17,12835,20.44,74456.5,5.33,-1.51,0.87,0,*62
1534558119.37,12836,20.44,74458.3,5.33,-1.35,0.97,0,*62
1534558120.57,12837,20.5,74464.0,5.33,-1.25,1.09,0,*54
1534558121.8,12838,20.44,74458.8,5.33,-1.13,1.21,0,*54
1534558123.03,12839,20.44,74460.3,5.33,-0.89,1.33,0,*64
1534558124.23,12840,20.5,74466.8,5.33,-0.65,1.33,0,*68